Flag for Canada Weather past 2 weeks in Dryden, Ontario, Canada

Now
41 °F

Mostly cloudy.


Feels Like: 35 °F
Forecast: 37 / 48 °F
Wind: 9 mph from Northeast

Location: Dryden Airport

Current Time: Sep 17, 2014 at 11:28:42 AM

Latest Report: Sep 17, 2014 at 11:00 AM


Visibility: 9 mi

Pressure: 30.11 "Hg

Humidity: 87%

Dew point: 37 °F

Location of DrydenLocation

Historic Weather in Dryden — Graph

°F

Dryden temperature yesterday

Maximum temperature yesterday: 55 °F (at 11:00 AM)
Minimum temperature yesterday: 45 °F (at 10:00 PM)
Average temperature yesterday: 50 °F

Past Weeks' High & Low Weather Summary

 TemperatureHumidityPressure
High77 °F (Sep 8, 3:00 PM)100% (Sep 3, 6:00 AM)30.44 "Hg (Sep 3, 6:00 AM)
Low36 °F (Sep 12, 4:00 AM)38% (Sep 10, 3:00 PM)29.60 "Hg (Sep 8, 3:00 PM)
Average52 °F76%30.01 "Hg
* Reported Sep 2 10:00 AM — Sep 17 10:00 AM, Dryden, Weather by CustomWeather, © 2014

Note: Actual official high and low records may vary slightly from our data, if they occured in-between our weather recording intervals... More about our weather records

Advertising

Dryden weather history for previous 24 hours

 ConditionsComfort  
Time TempWeatherWind HumidityBarometerVisibility
10:00 AM
Sep 17
39 °FMostly cloudy.12 mph93%30.09 "Hg9 mi
9:00 AM37 °FMostly cloudy.12 mph100%30.08 "Hg9 mi
8:00 AM37 °FLow clouds.10 mph93%30.06 "Hg9 mi
7:00 AM37 °FLow clouds.10 mph100%30.05 "Hg9 mi
6:00 AM37 °FLow clouds.13 mph100%30.01 "Hg9 mi
5:00 AM37 °FMostly cloudy.7 mph100%30.00 "Hg9 mi
4:00 AM37 °FLight rain. Low clouds.10 mph93%29.99 "Hg9 mi
2:00 AM41 °FLight rain. Mostly cloudy.14 mph93%29.97 "Hg9 mi
1:00 AM43 °FLight rain. Overcast.12 mph93%29.95 "Hg9 mi
12:00 AM45 °FLight rain. Overcast.8 mph87%29.93 "Hg9 mi
11:00 PM
Sep 16
45 °FOvercast.7 mph81%29.94 "Hg9 mi
10:00 PM45 °FMostly cloudy.7 mph81%29.98 "Hg9 mi
9:00 PM46 °FOvercast.7 mph76%30.00 "Hg9 mi
8:00 PM46 °FOvercast.7 mph76%30.00 "Hg9 mi
6:00 PM50 °FOvercast.5 mph71%30.02 "Hg9 mi
5:00 PM50 °FPartly sunny.7 mph71%30.02 "Hg9 mi
4:00 PM52 °FOvercast.9 mph72%30.03 "Hg9 mi
3:00 PM55 °FPartly sunny.8 mph63%30.03 "Hg9 mi
2:00 PM55 °FScattered clouds.7 mph59%30.02 "Hg9 mi
1:00 PM55 °FScattered clouds.7 mph67%30.03 "Hg9 mi
12:00 PM55 °FPassing clouds.8 mph67%30.01 "Hg9 mi
11:00 AM55 °FPassing clouds.5 mph72%29.99 "Hg9 mi
Weather by CustomWeather, © 2014

See weather overviewHow to use our weather pages